Time,TemperatureF,DewpointF,PressureIn,WindDirection,WindDirectionDegrees,WindSpeedMPH,WindSpeedGustMPH,Humidity,HourlyPrecipIn,Conditions,Clouds,dailyrainin,SoftwareType,DateUTC
2013-11-01 00:00:00,56.5,55.4,29.74,ESE,106,14.0,22.0,96,0.03,,---,0.34,VWS V14.01,2013-11-01 04:00:00,
2013-11-01 00:01:00,56.5,55.4,29.71,ESE,121,14.0,25.0,96,0.01,,---,0.35,VWS V14.01,2013-11-01 04:01:00,
2013-11-01 00:06:00,56.8,55.7,29.71,SE,130,7.0,16.0,96,0.01,,---,0.00,VWS V14.01,2013-11-01 04:06:00,
2013-11-01 00:11:00,56.7,55.6,29.71,SE,137,12.0,19.0,96,0.01,,---,0.00,VWS V14.01,2013-11-01 04:11:00,
2013-11-01 00:16:00,56.7,55.3,29.70,SE,138,8.0,19.0,95,0.01,,---,0.00,VWS V14.01,2013-11-01 04:16:00,
2013-11-01 00:21:00,56.7,55.3,29.70,East,94,10.0,19.0,95,0.02,,---,0.01,VWS V14.01,2013-11-01 04:21:00,
2013-11-01 00:26:00,56.7,55.6,29.70,ESE,115,8.0,19.0,96,0.02,,---,0.01,VWS V14.01,2013-11-01 04:26:00,
2013-11-01 00:30:00,56.5,55.4,29.72,SE,136,5.0,23.0,96,0.03,,---,0.35,VWS V14.01,2013-11-01 04:30:00,
2013-11-01 00:31:00,56.6,55.5,29.70,SE,126,11.0,19.0,96,0.02,,---,0.01,VWS V14.01,2013-11-01 04:31:00,
2013-11-01 00:36:00,56.7,55.6,29.69,East,90,7.0,11.0,96,0.01,,---,0.01,VWS V14.01,2013-11-01 04:36:00,
2013-11-01 00:41:00,56.7,55.6,29.69,SE,132,14.0,24.0,96,0.01,,---,0.01,VWS V14.01,2013-11-01 04:41:00,
2013-11-01 00:46:00,56.8,55.7,29.68,SE,128,6.0,24.0,96,0.01,,---,0.01,VWS V14.01,2013-11-01 04:46:00,
2013-11-01 00:51:00,56.8,55.7,29.68,ESE,121,10.0,24.0,96,0.02,,---,0.02,VWS V14.01,2013-11-01 04:51:00,
2013-11-01 00:56:00,57.0,55.9,29.68,SE,126,9.0,24.0,96,0.02,,---,0.02,VWS V14.01,2013-11-01 04:56:00,
2013-11-01 01:00:00,56.7,55.6,29.71,ESE,123,16.0,25.0,96,0.01,,---,0.00,VWS V14.01,2013-11-01 05:00:00,
2013-11-01 01:01:00,56.9,55.5,29.67,ESE,108,14.0,24.0,95,0.02,,---,0.02,VWS V14.01,2013-11-01 05:01:00,
2013-11-01 01:06:00,56.9,55.5,29.67,ESE,105,5.0,17.0,95,0.02,,---,0.02,VWS V14.01,2013-11-01 05:06:00,
2013-11-01 01:11:00,56.8,55.7,29.67,ESE,104,11.0,17.0,96,0.02,,---,0.02,VWS V14.01,2013-11-01 05:11:00,
2013-11-01 01:16:00,56.7,55.6,29.67,East,88,13.0,19.0,96,0.02,,---,0.02,VWS V14.01,2013-11-01 05:16:00,
2013-11-01 01:21:00,56.6,55.5,29.66,East,100,17.0,19.0,96,0.02,,---,0.02,VWS V14.01,2013-11-01 05:21:00,
2013-11-01 01:26:00,56.6,55.5,29.66,SE,131,10.0,21.0,96,0.03,,---,0.03,VWS V14.01,2013-11-01 05:26:00,
2013-11-01 01:30:00,56.6,55.5,29.69,East,88,10.0,19.0,96,0.02,,---,0.01,VWS V14.01,2013-11-01 05:30:00,
2013-11-01 01:31:00,56.8,55.7,29.66,ESE,108,7.0,23.0,96,0.03,,---,0.03,VWS V14.01,2013-11-01 05:31:00,
2013-11-01 01:36:00,56.7,55.6,29.66,ENE,71,14.0,18.0,96,0.02,,---,0.03,VWS V14.01,2013-11-01 05:36:00,
2013-11-01 01:41:00,56.8,55.7,29.65,ESE,110,11.0,26.0,96,0.03,,---,0.04,VWS V14.01,2013-11-01 05:41:00,
2013-11-01 01:45:00,56.8,55.7,29.65,East,88,8.0,26.0,96,0.03,,---,0.04,VWS V14.01,2013-11-01 05:45:00,
2013-11-01 01:50:00,56.7,55.6,29.64,ESE,103,11.0,26.0,96,0.04,,---,0.05,VWS V14.01,2013-11-01 05:50:00,
2013-11-01 01:55:00,56.7,55.6,29.64,SE,124,7.0,26.0,96,0.04,,---,0.05,VWS V14.01,2013-11-01 05:55:00,
2013-11-01 02:00:00,56.6,55.5,29.63,East,88,15.0,26.0,96,0.05,,---,0.06,VWS V14.01,2013-11-01 06:00:00,
2013-11-01 02:05:00,56.5,55.4,29.63,ESE,117,9.0,10.0,96,0.05,,---,0.07,VWS V14.01,2013-11-01 06:05:00,
2013-11-01 02:10:00,56.6,55.5,29.62,East,90,11.0,17.0,96,0.05,,---,0.07,VWS V14.01,2013-11-01 06:10:00,
2013-11-01 02:15:00,56.8,56.0,29.62,ESE,111,8.0,20.0,97,0.06,,---,0.08,VWS V14.01,2013-11-01 06:15:00,
2013-11-01 02:20:00,57.0,55.9,29.61,East,101,8.0,20.0,96,0.06,,---,0.08,VWS V14.01,2013-11-01 06:20:00,
2013-11-01 02:25:00,57.0,55.9,29.61,East,98,8.0,20.0,96,0.06,,---,0.08,VWS V14.01,2013-11-01 06:25:00,
2013-11-01 02:30:00,57.1,56.0,29.60,East,87,7.0,21.0,96,0.06,,---,0.08,VWS V14.01,2013-11-01 06:30:00,
2013-11-01 02:35:00,57.2,56.1,29.60,East,83,8.0,11.0,96,0.06,,---,0.09,VWS V14.01,2013-11-01 06:35:00,
2013-11-01 02:40:00,57.2,56.1,29.60,ESE,107,13.0,22.0,96,0.07,,---,0.10,VWS V14.01,2013-11-01 06:40:00,
2013-11-01 02:45:00,57.3,56.5,29.59,SE,127,12.0,22.0,97,0.08,,---,0.11,VWS V14.01,2013-11-01 06:45:00,
2013-11-01 02:50:00,57.3,56.5,29.59,ESE,117,22.0,22.0,97,0.09,,---,0.12,VWS V14.01,2013-11-01 06:50:00,
2013-11-01 02:55:00,57.3,56.2,29.58,ENE,63,4.0,23.0,96,0.09,,---,0.12,VWS V14.01,2013-11-01 06:55:00,
2013-11-01 03:00:00,57.3,56.2,29.58,North,360,11.0,25.0,96,0.10,,---,0.13,VWS V14.01,2013-11-01 07:00:00,
2013-11-01 03:05:00,57.4,56.3,29.57,ESE,108,9.0,13.0,96,0.07,,---,0.14,VWS V14.01,2013-11-01 07:05:00,
2013-11-01 03:10:00,57.5,56.7,29.56,East,88,6.0,17.0,97,0.08,,---,0.15,VWS V14.01,2013-11-01 07:10:00,
2013-11-01 03:15:00,57.8,57.0,29.56,NE,35,6.0,17.0,97,0.09,,---,0.16,VWS V14.01,2013-11-01 07:15:00,
2013-11-01 03:20:00,58.0,57.2,29.55,ENE,62,9.0,21.0,97,0.11,,---,0.18,VWS V14.01,2013-11-01 07:20:00,
2013-11-01 03:25:00,58.1,57.3,29.55,East,81,6.0,21.0,97,0.13,,---,0.20,VWS V14.01,2013-11-01 07:25:00,
2013-11-01 03:30:00,58.3,57.5,29.54,ESE,121,11.0,22.0,97,0.13,,---,0.20,VWS V14.01,2013-11-01 07:30:00,
2013-11-01 03:35:00,58.3,57.5,29.54,ESE,108,15.0,15.0,97,0.12,,---,0.21,VWS V14.01,2013-11-01 07:35:00,
2013-11-01 03:40:00,58.5,57.7,29.53,East,88,22.0,25.0,97,0.13,,---,0.22,VWS V14.01,2013-11-01 07:40:00,
2013-11-01 03:45:00,58.5,57.7,29.53,ESE,115,15.0,25.0,97,0.13,,---,0.22,VWS V14.01,2013-11-01 07:45:00,
2013-11-01 03:50:00,58.6,57.8,29.53,ENE,60,14.0,26.0,97,0.13,,---,0.22,VWS V14.01,2013-11-01 07:50:00,
2013-11-01 03:55:00,58.7,57.8,29.52,ESE,121,10.0,34.0,97,0.14,,---,0.23,VWS V14.01,2013-11-01 07:55:00,
2013-11-01 03:59:00,58.8,58.0,29.52,East,88,9.0,34.0,97,0.14,,---,0.23,VWS V14.01,2013-11-01 07:59:00,
2013-11-01 04:00:00,57.3,56.2,29.57,NE,54,7.0,25.0,96,0.11,,---,0.14,VWS V14.01,2013-11-01 08:00:00,
2013-11-01 04:04:00,58.8,58.0,29.52,ESE,119,14.0,22.0,97,0.09,,---,0.23,VWS V14.01,2013-11-01 08:04:00,
2013-11-01 04:09:00,58.8,57.7,29.51,East,98,13.0,34.0,96,0.09,,---,0.23,VWS V14.01,2013-11-01 08:09:00,
2013-11-01 04:14:00,58.9,57.8,29.51,East,90,16.0,34.0,96,0.09,,---,0.23,VWS V14.01,2013-11-01 08:14:00,
2013-11-01 04:19:00,58.8,57.7,29.51,ESE,111,14.0,34.0,96,0.09,,---,0.23,VWS V14.01,2013-11-01 08:19:00,
2013-11-01 04:24:00,58.8,57.7,29.51,East,93,25.0,34.0,96,0.09,,---,0.23,VWS V14.01,2013-11-01 08:24:00,
2013-11-01 04:29:00,58.7,57.6,29.51,ESE,103,20.0,34.0,96,0.09,,---,0.23,VWS V14.01,2013-11-01 08:29:00,
2013-11-01 04:30:00,58.3,57.5,29.54,ESE,112,8.0,22.0,97,0.14,,---,0.21,VWS V14.01,2013-11-01 08:30:00,
2013-11-01 04:34:00,58.6,57.5,29.51,NNW,335,6.0,21.0,96,0.03,,---,0.24,VWS V14.01,2013-11-01 08:34:00,
2013-11-01 04:39:00,58.8,57.7,29.51,ESE,113,11.0,30.0,96,0.03,,---,0.24,VWS V14.01,2013-11-01 08:39:00,
2013-11-01 04:44:00,58.9,57.8,29.51,NE,46,10.0,30.0,96,0.03,,---,0.24,VWS V14.01,2013-11-01 08:44:00,
2013-11-01 04:49:00,58.8,57.7,29.51,NE,34,9.0,30.0,96,0.03,,---,0.24,VWS V14.01,2013-11-01 08:49:00,
2013-11-01 04:54:00,58.8,57.7,29.51,SE,126,15.0,30.0,96,0.03,,---,0.24,VWS V14.01,2013-11-01 08:54:00,
2013-11-01 04:59:00,58.8,57.7,29.51,East,91,16.0,30.0,96,0.03,,---,0.24,VWS V14.01,2013-11-01 08:59:00,
2013-11-01 05:00:00,58.8,58.0,29.52,ENE,65,16.0,34.0,97,0.14,,---,0.23,VWS V14.01,2013-11-01 09:00:00,
2013-11-01 05:04:00,58.6,57.5,29.51,SE,128,10.0,14.0,96,0.01,,---,0.24,VWS V14.01,2013-11-01 09:04:00,
2013-11-01 05:09:00,58.5,57.4,29.51,ESE,118,8.0,25.0,96,0.01,,---,0.24,VWS V14.01,2013-11-01 09:09:00,
2013-11-01 05:14:00,58.4,57.3,29.51,ESE,113,12.0,25.0,96,0.01,,---,0.24,VWS V14.01,2013-11-01 09:14:00,
2013-11-01 05:19:00,58.3,57.2,29.51,East,88,7.0,25.0,96,0.01,,---,0.24,VWS V14.01,2013-11-01 09:19:00,
2013-11-01 05:24:00,58.1,57.0,29.51,SE,132,8.0,25.0,96,0.01,,---,0.24,VWS V14.01,2013-11-01 09:24:00,
2013-11-01 05:29:00,58.1,57.0,29.51,SE,124,9.0,25.0,96,0.01,,---,0.24,VWS V14.01,2013-11-01 09:29:00,
2013-11-01 05:30:00,58.6,57.5,29.51,SE,130,10.0,34.0,96,0.10,,---,0.24,VWS V14.01,2013-11-01 09:30:00,
2013-11-01 05:34:00,58.0,56.9,29.51,ENE,59,19.0,23.0,96,0.00,,---,0.24,VWS V14.01,2013-11-01 09:34:00,
2013-11-01 05:39:00,57.9,56.8,29.51,East,98,18.0,26.0,96,0.01,,---,0.25,VWS V14.01,2013-11-01 09:39:00,
2013-11-01 05:44:00,58.0,56.9,29.50,ESE,121,10.0,26.0,96,0.01,,---,0.25,VWS V14.01,2013-11-01 09:44:00,
2013-11-01 05:49:00,58.1,57.0,29.50,NNE,30,13.0,26.0,96,0.01,,---,0.25,VWS V14.01,2013-11-01 09:49:00,
2013-11-01 05:54:00,58.1,57.0,29.50,East,97,6.0,26.0,96,0.01,,---,0.25,VWS V14.01,2013-11-01 09:54:00,
2013-11-01 05:59:00,58.1,57.0,29.49,ENE,67,10.0,26.0,96,0.02,,---,0.26,VWS V14.01,2013-11-01 09:59:00,
2013-11-01 06:00:00,58.6,57.5,29.51,ESE,105,14.0,30.0,96,0.03,,---,0.24,VWS V14.01,2013-11-01 10:00:00,
2013-11-01 06:04:00,58.1,57.0,29.49,NE,36,13.0,20.0,96,0.02,,---,0.26,VWS V14.01,2013-11-01 10:04:00,
2013-11-01 06:09:00,58.0,56.9,29.49,SE,134,12.0,25.0,96,0.02,,---,0.26,VWS V14.01,2013-11-01 10:09:00,
2013-11-01 06:14:00,58.0,56.9,29.49,ESE,114,14.0,28.0,96,0.02,,---,0.26,VWS V14.01,2013-11-01 10:14:00,
2013-11-01 06:19:00,58.0,56.6,29.48,SE,131,10.0,28.0,95,0.02,,---,0.26,VWS V14.01,2013-11-01 10:19:00,
2013-11-01 06:24:00,57.9,56.5,29.48,East,100,10.0,28.0,95,0.02,,---,0.26,VWS V14.01,2013-11-01 10:24:00,
2013-11-01 06:29:00,57.8,56.4,29.47,ESE,114,18.0,28.0,95,0.02,,---,0.26,VWS V14.01,2013-11-01 10:29:00,
2013-11-01 06:30:00,58.0,56.9,29.51,ESE,113,8.0,25.0,96,0.01,,---,0.24,VWS V14.01,2013-11-01 10:30:00,
2013-11-01 06:34:00,57.8,56.4,29.47,SE,128,8.0,15.0,95,0.02,,---,0.26,VWS V14.01,2013-11-01 10:34:00,
2013-11-01 06:39:00,57.8,56.4,29.47,ESE,104,9.0,23.0,95,0.02,,---,0.26,VWS V14.01,2013-11-01 10:39:00,
2013-11-01 06:44:00,57.9,56.8,29.47,ESE,111,12.0,23.0,96,0.02,,---,0.26,VWS V14.01,2013-11-01 10:44:00,
2013-11-01 06:49:00,57.9,56.8,29.46,ESE,112,23.0,24.0,96,0.02,,---,0.26,VWS V14.01,2013-11-01 10:49:00,
2013-11-01 06:54:00,57.9,56.5,29.46,ESE,105,8.0,24.0,95,0.02,,---,0.26,VWS V14.01,2013-11-01 10:54:00,
2013-11-01 06:59:00,57.9,56.5,29.47,ENE,64,14.0,24.0,95,0.02,,---,0.26,VWS V14.01,2013-11-01 10:59:00,
2013-11-01 07:00:00,58.1,57.0,29.49,East,98,9.0,26.0,96,0.02,,---,0.26,VWS V14.01,2013-11-01 11:00:00,
2013-11-01 07:04:00,58.0,56.6,29.46,East,90,13.0,28.0,95,0.00,,---,0.26,VWS V14.01,2013-11-01 11:04:00,
2013-11-01 07:09:00,58.0,56.6,29.46,ESE,114,22.0,28.0,95,0.00,,---,0.26,VWS V14.01,2013-11-01 11:09:00,
2013-11-01 07:14:00,58.0,56.6,29.46,SSE,148,13.0,29.0,95,0.01,,---,0.27,VWS V14.01,2013-11-01 11:14:00,
2013-11-01 07:19:00,58.1,56.7,29.46,East,98,18.0,30.0,95,0.01,,---,0.27,VWS V14.01,2013-11-01 11:19:00,
2013-11-01 07:24:00,58.0,56.6,29.46,ESE,114,13.0,30.0,95,0.01,,---,0.27,VWS V14.01,2013-11-01 11:24:00,
2013-11-01 07:29:00,58.0,56.9,29.46,East,96,19.0,30.0,96,0.01,,---,0.27,VWS V14.01,2013-11-01 11:29:00,
2013-11-01 07:30:00,57.8,56.4,29.47,ESE,106,14.0,28.0,95,0.02,,---,0.26,VWS V14.01,2013-11-01 11:30:00,
2013-11-01 07:34:00,58.1,57.0,29.46,ENE,68,14.0,19.0,96,0.02,,---,0.28,VWS V14.01,2013-11-01 11:34:00,
2013-11-01 07:39:00,58.2,56.8,29.46,SE,142,6.0,21.0,95,0.02,,---,0.28,VWS V14.01,2013-11-01 11:39:00,
2013-11-01 07:44:00,58.2,56.8,29.46,SE,128,12.0,24.0,95,0.02,,---,0.28,VWS V14.01,2013-11-01 11:44:00,
2013-11-01 07:49:00,58.3,56.9,29.45,ENE,74,12.0,25.0,95,0.02,,---,0.28,VWS V14.01,2013-11-01 11:49:00,
2013-11-01 07:54:00,58.5,57.1,29.45,East,93,11.0,31.0,95,0.02,,---,0.28,VWS V14.01,2013-11-01 11:54:00,
2013-11-01 07:59:00,58.5,57.1,29.45,ESE,111,17.0,31.0,95,0.02,,---,0.28,VWS V14.01,2013-11-01 11:59:00,
2013-11-01 08:00:00,58.0,56.6,29.46,East,96,28.0,31.0,95,0.02,,---,0.26,VWS V14.01,2013-11-01 12:00:00,
2013-11-01 08:04:00,58.5,57.1,29.46,East,92,15.0,21.0,95,0.02,,---,0.28,VWS V14.01,2013-11-01 12:04:00,
2013-11-01 08:09:00,58.6,57.2,29.46,ESE,110,9.0,23.0,95,0.03,,---,0.29,VWS V14.01,2013-11-01 12:09:00,
2013-11-01 08:14:00,58.6,57.2,29.46,East,84,11.0,27.0,95,0.03,,---,0.29,VWS V14.01,2013-11-01 12:14:00,
2013-11-01 08:19:00,58.6,57.2,29.46,SE,135,9.0,28.0,95,0.03,,---,0.29,VWS V14.01,2013-11-01 12:19:00,
2013-11-01 08:24:00,58.6,57.2,29.46,East,88,24.0,28.0,95,0.04,,---,0.30,VWS V14.01,2013-11-01 12:24:00,
2013-11-01 08:29:00,58.6,57.2,29.46,ESE,112,12.0,28.0,95,0.05,,---,0.31,VWS V14.01,2013-11-01 12:29:00,
2013-11-01 08:30:00,58.1,56.7,29.46,ESE,107,19.0,30.0,95,0.01,,---,0.27,VWS V14.01,2013-11-01 12:30:00,
2013-11-01 08:34:00,58.6,57.2,29.46,ESE,121,11.0,15.0,95,0.04,,---,0.31,VWS V14.01,2013-11-01 12:34:00,
2013-11-01 08:39:00,58.7,57.3,29.45,ENE,69,15.0,25.0,95,0.05,,---,0.32,VWS V14.01,2013-11-01 12:39:00,
2013-11-01 08:44:00,58.6,57.2,29.45,ESE,121,12.0,25.0,95,0.05,,---,0.32,VWS V14.01,2013-11-01 12:44:00,
2013-11-01 08:49:00,58.7,57.3,29.45,East,94,13.0,25.0,95,0.06,,---,0.33,VWS V14.01,2013-11-01 12:49:00,
2013-11-01 08:54:00,58.8,57.4,29.45,ESE,103,14.0,31.0,95,0.06,,---,0.33,VWS V14.01,2013-11-01 12:54:00,
2013-11-01 08:59:00,58.8,57.4,29.45,ENE,71,12.0,31.0,95,0.06,,---,0.33,VWS V14.01,2013-11-01 12:59:00,
2013-11-01 09:00:00,58.5,57.1,29.46,NE,55,10.0,31.0,95,0.02,,---,0.28,VWS V14.01,2013-11-01 13:00:00,
2013-11-01 09:04:00,58.9,57.5,29.45,ESE,118,9.0,12.0,95,0.06,,---,0.34,VWS V14.01,2013-11-01 13:04:00,
2013-11-01 09:09:00,59.0,57.6,29.45,ENE,69,13.0,27.0,95,0.06,,---,0.34,VWS V14.01,2013-11-01 13:09:00,
2013-11-01 09:14:00,59.0,57.6,29.45,ESE,103,10.0,32.0,95,0.06,,---,0.34,VWS V14.01,2013-11-01 13:14:00,
2013-11-01 09:19:00,59.1,57.7,29.44,SE,129,23.0,32.0,95,0.07,,---,0.35,VWS V14.01,2013-11-01 13:19:00,
2013-11-01 09:24:00,59.1,57.7,29.45,East,98,10.0,32.0,95,0.07,,---,0.35,VWS V14.01,2013-11-01 13:24:00,
2013-11-01 09:29:00,59.2,57.8,29.44,ESE,115,19.0,32.0,95,0.07,,---,0.35,VWS V14.01,2013-11-01 13:29:00,
2013-11-01 09:30:00,58.6,57.2,29.46,East,80,14.0,31.0,95,0.05,,---,0.31,VWS V14.01,2013-11-01 13:30:00,
2013-11-01 09:34:00,59.2,57.8,29.43,ESE,121,22.0,27.0,95,0.05,,---,0.36,VWS V14.01,2013-11-01 13:34:00,
2013-11-01 09:39:00,59.3,57.9,29.43,SE,136,9.0,29.0,95,0.05,,---,0.36,VWS V14.01,2013-11-01 13:39:00,
2013-11-01 09:44:00,59.4,58.0,29.43,SE,130,11.0,30.0,95,0.05,,---,0.36,VWS V14.01,2013-11-01 13:44:00,
2013-11-01 09:49:00,59.4,58.0,29.43,ESE,109,28.0,32.0,95,0.06,,---,0.37,VWS V14.01,2013-11-01 13:49:00,
2013-11-01 09:54:00,59.4,58.0,29.43,East,92,9.0,32.0,95,0.07,,---,0.38,VWS V14.01,2013-11-01 13:54:00,
2013-11-01 09:59:00,59.4,58.3,29.42,ESE,113,14.0,32.0,96,0.07,,---,0.38,VWS V14.01,2013-11-01 13:59:00,
2013-11-01 10:00:00,58.9,57.5,29.45,ESE,118,12.0,31.0,95,0.07,,---,0.34,VWS V14.01,2013-11-01 14:00:00,
2013-11-01 10:04:00,59.5,58.4,29.42,ESE,104,11.0,22.0,96,0.05,,---,0.39,VWS V14.01,2013-11-01 14:04:00,
2013-11-01 10:09:00,59.5,58.4,29.41,East,101,20.0,27.0,96,0.06,,---,0.40,VWS V14.01,2013-11-01 14:09:00,
2013-11-01 10:14:00,59.5,58.1,29.41,ESE,121,18.0,27.0,95,0.06,,---,0.40,VWS V14.01,2013-11-01 14:14:00,
2013-11-01 10:19:00,59.5,58.1,29.41,ENE,69,15.0,27.0,95,0.07,,---,0.41,VWS V14.01,2013-11-01 14:19:00,
2013-11-01 10:24:00,59.5,58.1,29.40,East,88,16.0,30.0,95,0.07,,---,0.41,VWS V14.01,2013-11-01 14:24:00,
2013-11-01 10:29:00,59.7,58.3,29.40,ESE,120,22.0,30.0,95,0.07,,---,0.41,VWS V14.01,2013-11-01 14:29:00,
2013-11-01 10:30:00,59.2,57.8,29.43,East,95,27.0,32.0,95,0.08,,---,0.36,VWS V14.01,2013-11-01 14:30:00,
2013-11-01 10:34:00,60.1,58.7,29.40,SE,128,13.0,13.0,95,0.05,,---,0.41,VWS V14.01,2013-11-01 14:34:00,
2013-11-01 10:39:00,60.3,58.9,29.40,East,89,13.0,32.0,95,0.05,,---,0.41,VWS V14.01,2013-11-01 14:39:00,
2013-11-01 10:44:00,60.4,58.7,29.39,SE,130,5.0,32.0,94,0.05,,---,0.41,VWS V14.01,2013-11-01 14:44:00,
2013-11-01 10:49:00,60.6,58.9,29.40,ESE,113,22.0,32.0,94,0.05,,---,0.41,VWS V14.01,2013-11-01 14:49:00,
2013-11-01 10:54:00,60.7,59.0,29.39,ENE,74,17.0,34.0,94,0.05,,---,0.41,VWS V14.01,2013-11-01 14:54:00,
2013-11-01 10:59:00,60.7,59.0,29.40,ESE,109,17.0,35.0,94,0.05,,---,0.41,VWS V14.01,2013-11-01 14:59:00,
2013-11-01 11:00:00,59.5,58.4,29.42,East,91,22.0,32.0,96,0.08,,---,0.39,VWS V14.01,2013-11-01 15:00:00,
2013-11-01 11:04:00,60.7,59.0,29.39,ESE,106,20.0,20.0,94,0.02,,---,0.41,VWS V14.01,2013-11-01 15:04:00,
2013-11-01 11:09:00,60.6,58.9,29.39,ENE,67,10.0,27.0,94,0.02,,---,0.41,VWS V14.01,2013-11-01 15:09:00,
2013-11-01 11:14:00,60.6,58.9,29.39,East,90,21.0,31.0,94,0.02,,---,0.41,VWS V14.01,2013-11-01 15:14:00,
2013-11-01 11:19:00,60.8,59.1,29.38,East,97,16.0,37.0,94,0.02,,---,0.41,VWS V14.01,2013-11-01 15:19:00,
2013-11-01 11:24:00,60.7,59.0,29.38,ESE,109,23.0,37.0,94,0.02,,---,0.41,VWS V14.01,2013-11-01 15:24:00,
2013-11-01 11:29:00,61.0,59.3,29.37,East,92,17.0,37.0,94,0.02,,---,0.41,VWS V14.01,2013-11-01 15:29:00,
2013-11-01 11:30:00,60.1,58.7,29.40,East,85,10.0,30.0,95,0.07,,---,0.41,VWS V14.01,2013-11-01 15:30:00,
2013-11-01 11:34:00,61.4,59.4,29.37,East,96,13.0,14.0,93,0.00,,---,0.41,VWS V14.01,2013-11-01 15:34:00,
2013-11-01 11:39:00,61.6,59.6,29.36,ESE,117,17.0,31.0,93,0.00,,---,0.41,VWS V14.01,2013-11-01 15:39:00,
2013-11-01 11:44:00,61.7,59.7,29.36,East,95,27.0,31.0,93,0.00,,---,0.41,VWS V14.01,2013-11-01 15:44:00,
2013-11-01 11:49:00,61.7,59.7,29.35,East,94,28.0,31.0,93,0.00,,---,0.41,VWS V14.01,2013-11-01 15:49:00,
2013-11-01 11:54:00,61.7,59.7,29.36,NE,53,14.0,31.0,93,0.00,,---,0.41,VWS V14.01,2013-11-01 15:54:00,
2013-11-01 11:59:00,61.6,59.6,29.35,ENE,72,19.0,31.0,93,0.00,,---,0.41,VWS V14.01,2013-11-01 15:59:00,
2013-11-01 12:00:00,60.7,59.0,29.39,ESE,119,14.0,35.0,94,0.05,,---,0.41,VWS V14.01,2013-11-01 16:00:00,
2013-11-01 12:04:00,61.7,59.7,29.35,East,92,24.0,31.0,93,0.00,,---,0.41,VWS V14.01,2013-11-01 16:04:00,
2013-11-01 12:09:00,61.9,59.9,29.34,ESE,103,13.0,33.0,93,0.00,,---,0.41,VWS V14.01,2013-11-01 16:09:00,
2013-11-01 12:14:00,61.9,59.9,29.35,ENE,69,14.0,33.0,93,0.00,,---,0.41,VWS V14.01,2013-11-01 16:14:00,
2013-11-01 12:19:00,62.0,59.7,29.34,ENE,64,19.0,37.0,92,0.00,,---,0.41,VWS V14.01,2013-11-01 16:19:00,
2013-11-01 12:24:00,61.9,59.5,29.34,SSE,150,21.0,37.0,92,0.00,,---,0.41,VWS V14.01,2013-11-01 16:24:00,
2013-11-01 12:29:00,61.8,59.8,29.33,ESE,123,15.0,37.0,93,0.00,,---,0.41,VWS V14.01,2013-11-01 16:29:00,
2013-11-01 12:30:00,61.4,59.7,29.36,East,90,13.0,37.0,94,0.02,,---,0.41,VWS V14.01,2013-11-01 16:30:00,
2013-11-01 12:34:00,61.8,59.8,29.33,ENE,69,30.0,37.0,93,0.00,,---,0.41,VWS V14.01,2013-11-01 16:34:00,
2013-11-01 12:39:00,61.7,59.4,29.32,ESE,116,12.0,31.0,92,0.00,,---,0.41,VWS V14.01,2013-11-01 16:39:00,
2013-11-01 12:44:00,61.3,59.3,29.32,ESE,114,14.0,35.0,93,0.00,,---,0.41,VWS V14.01,2013-11-01 16:44:00,
2013-11-01 12:49:00,61.2,59.2,29.31,East,94,13.0,35.0,93,0.00,,---,0.41,VWS V14.01,2013-11-01 16:49:00,
2013-11-01 12:54:00,61.3,59.3,29.31,ESE,120,19.0,35.0,93,0.00,,---,0.41,VWS V14.01,2013-11-01 16:54:00,
2013-11-01 12:59:00,61.4,59.4,29.31,ENE,66,21.0,35.0,93,0.00,,---,0.41,VWS V14.01,2013-11-01 16:59:00,
2013-11-01 13:00:00,61.7,59.7,29.35,East,92,24.0,31.0,93,0.00,,---,0.41,VWS V14.01,2013-11-01 17:00:00,
2013-11-01 13:04:00,61.7,59.7,29.31,SE,124,15.0,35.0,93,0.00,,---,0.41,VWS V14.01,2013-11-01 17:04:00,
2013-11-01 13:09:00,62.0,60.0,29.31,SE,126,9.0,42.0,93,0.00,,---,0.41,VWS V14.01,2013-11-01 17:09:00,
2013-11-01 13:14:00,62.1,59.8,29.31,East,82,18.0,42.0,92,0.00,,---,0.41,VWS V14.01,2013-11-01 17:14:00,
2013-11-01 13:19:00,62.1,59.8,29.30,ENE,67,19.0,42.0,92,0.00,,---,0.41,VWS V14.01,2013-11-01 17:19:00,
2013-11-01 13:24:00,61.9,59.5,29.30,ESE,113,21.0,42.0,92,0.00,,---,0.41,VWS V14.01,2013-11-01 17:24:00,
2013-11-01 13:29:00,61.8,59.5,29.31,ESE,122,16.0,45.0,92,0.00,,---,0.41,VWS V14.01,2013-11-01 17:29:00,
2013-11-01 13:30:00,61.8,59.8,29.33,ENE,69,30.0,37.0,93,0.00,,---,0.41,VWS V14.01,2013-11-01 17:30:00,
2013-11-01 13:34:00,61.7,59.4,29.31,East,86,16.0,45.0,92,0.00,,---,0.41,VWS V14.01,2013-11-01 17:34:00,
2013-11-01 13:39:00,61.6,59.6,29.31,SE,134,14.0,33.0,93,0.00,,---,0.41,VWS V14.01,2013-11-01 17:39:00,
2013-11-01 13:44:00,61.4,59.7,29.32,SE,124,22.0,39.0,94,0.01,,---,0.42,VWS V14.01,2013-11-01 17:44:00,
2013-11-01 13:49:00,61.4,59.4,29.32,East,80,35.0,39.0,93,0.01,,---,0.42,VWS V14.01,2013-11-01 17:49:00,
2013-11-01 13:54:00,61.5,59.2,29.32,East,101,16.0,39.0,92,0.01,,---,0.42,VWS V14.01,2013-11-01 17:54:00,
2013-11-01 13:59:00,61.3,59.0,29.32,ENE,75,11.0,39.0,92,0.01,,---,0.42,VWS V14.01,2013-11-01 17:59:00,
2013-11-01 14:00:00,61.7,59.7,29.31,SE,124,15.0,35.0,93,0.00,,---,0.41,VWS V14.01,2013-11-01 18:00:00,
2013-11-01 14:04:00,61.2,58.9,29.31,ESE,115,11.0,39.0,92,0.01,,---,0.42,VWS V14.01,2013-11-01 18:04:00,
2013-11-01 14:09:00,61.2,58.9,29.31,ESE,111,29.0,29.0,92,0.01,,---,0.42,VWS V14.01,2013-11-01 18:09:00,
2013-11-01 14:14:00,61.2,58.6,29.31,SE,128,13.0,30.0,91,0.01,,---,0.42,VWS V14.01,2013-11-01 18:14:00,
2013-11-01 14:19:00,61.0,58.4,29.31,ESE,109,19.0,30.0,91,0.01,,---,0.42,VWS V14.01,2013-11-01 18:19:00,
2013-11-01 14:24:00,60.7,58.4,29.30,ESE,119,10.0,30.0,92,0.01,,---,0.42,VWS V14.01,2013-11-01 18:24:00,
2013-11-01 14:29:00,60.4,58.1,29.30,East,96,16.0,30.0,92,0.01,,---,0.42,VWS V14.01,2013-11-01 18:29:00,
2013-11-01 14:30:00,61.7,59.4,29.31,East,86,16.0,45.0,92,0.00,,---,0.41,VWS V14.01,2013-11-01 18:30:00,
2013-11-01 14:34:00,60.2,57.9,29.29,NNW,327,8.0,30.0,92,0.01,,---,0.42,VWS V14.01,2013-11-01 18:34:00,
2013-11-01 14:39:00,60.1,57.8,29.28,SE,134,8.0,24.0,92,0.01,,---,0.42,VWS V14.01,2013-11-01 18:39:00,
2013-11-01 14:44:00,60.1,57.5,29.26,ENE,70,13.0,30.0,91,0.01,,---,0.42,VWS V14.01,2013-11-01 18:44:00,
2013-11-01 14:49:00,60.1,57.5,29.28,ESE,116,15.0,30.0,91,0.01,,---,0.42,VWS V14.01,2013-11-01 18:49:00,
2013-11-01 14:54:00,59.9,57.3,29.27,ESE,117,19.0,30.0,91,0.01,,---,0.42,VWS V14.01,2013-11-01 18:54:00,
2013-11-01 14:59:00,60.0,57.4,29.28,East,94,13.0,30.0,91,0.01,,---,0.42,VWS V14.01,2013-11-01 18:59:00,
2013-11-01 15:00:00,61.2,58.9,29.31,East,90,10.0,39.0,92,0.01,,---,0.42,VWS V14.01,2013-11-01 19:00:00,
2013-11-01 15:04:00,60.1,57.5,29.28,ESE,118,7.0,30.0,91,0.01,,---,0.42,VWS V14.01,2013-11-01 19:04:00,
2013-11-01 15:09:00,60.1,57.2,29.28,ESE,104,7.0,21.0,90,0.00,,---,0.42,VWS V14.01,2013-11-01 19:09:00,
2013-11-01 15:14:00,60.3,57.4,29.29,ESE,115,8.0,21.0,90,0.00,,---,0.42,VWS V14.01,2013-11-01 19:14:00,
2013-11-01 15:19:00,60.5,57.6,29.29,East,95,10.0,21.0,90,0.00,,---,0.42,VWS V14.01,2013-11-01 19:19:00,
2013-11-01 15:24:00,60.5,57.6,29.29,SE,125,6.0,21.0,90,0.00,,---,0.42,VWS V14.01,2013-11-01 19:24:00,
2013-11-01 15:29:00,60.6,57.7,29.29,ESE,106,8.0,21.0,90,0.00,,---,0.42,VWS V14.01,2013-11-01 19:29:00,
2013-11-01 15:30:00,60.2,57.9,29.29,NE,52,5.0,30.0,92,0.01,,---,0.42,VWS V14.01,2013-11-01 19:30:00,
2013-11-01 15:34:00,60.9,58.0,29.29,ESE,115,15.0,26.0,90,0.00,,---,0.42,VWS V14.01,2013-11-01 19:34:00,
2013-11-01 15:39:00,61.1,57.8,29.29,SE,130,10.0,23.0,89,0.00,,---,0.42,VWS V14.01,2013-11-01 19:39:00,
2013-11-01 15:44:00,61.4,57.8,29.29,SE,130,8.0,23.0,88,0.00,,---,0.42,VWS V14.01,2013-11-01 19:44:00,
2013-11-01 15:49:00,61.2,57.3,29.30,SSE,151,9.0,24.0,87,0.00,,---,0.42,VWS V14.01,2013-11-01 19:49:00,
2013-11-01 15:54:00,60.8,56.9,29.30,East,86,14.0,26.0,87,0.00,,---,0.42,VWS V14.01,2013-11-01 19:54:00,
2013-11-01 15:59:00,60.2,56.6,29.29,ESE,118,18.0,26.0,88,0.00,,---,0.42,VWS V14.01,2013-11-01 19:59:00,
2013-11-01 16:00:00,60.1,57.5,29.28,ENE,77,9.0,30.0,91,0.01,,---,0.42,VWS V14.01,2013-11-01 20:00:00,
2013-11-01 16:04:00,59.8,56.2,29.29,ESE,111,12.0,26.0,88,0.00,,---,0.42,VWS V14.01,2013-11-01 20:04:00,
2013-11-01 16:09:00,60.0,56.4,29.29,SE,130,10.0,21.0,88,0.00,,---,0.42,VWS V14.01,2013-11-01 20:09:00,
2013-11-01 16:14:00,60.0,56.1,29.29,ESE,118,9.0,21.0,87,0.00,,---,0.42,VWS V14.01,2013-11-01 20:14:00,
2013-11-01 16:19:00,59.9,56.0,29.29,ENE,74,13.0,21.0,87,0.00,,---,0.42,VWS V14.01,2013-11-01 20:19:00,
2013-11-01 16:24:00,59.7,55.8,29.30,East,100,14.0,21.0,87,0.00,,---,0.42,VWS V14.01,2013-11-01 20:24:00,
2013-11-01 16:29:00,59.5,55.3,29.30,SE,127,18.0,24.0,86,0.00,,---,0.42,VWS V14.01,2013-11-01 20:29:00,
2013-11-01 16:30:00,60.9,58.0,29.29,ESE,117,13.0,26.0,90,0.00,,---,0.42,VWS V14.01,2013-11-01 20:30:00,
2013-11-01 16:34:00,59.3,55.1,29.30,ENE,66,12.0,24.0,86,0.00,,---,0.42,VWS V14.01,2013-11-01 20:34:00,
2013-11-01 16:39:00,59.0,54.8,29.30,East,90,14.0,22.0,86,0.00,,---,0.42,VWS V14.01,2013-11-01 20:39:00,
2013-11-01 16:44:00,59.0,54.8,29.29,ESE,111,17.0,24.0,86,0.00,,---,0.42,VWS V14.01,2013-11-01 20:44:00,
2013-11-01 16:49:00,59.0,54.5,29.29,East,92,10.0,24.0,85,0.00,,---,0.42,VWS V14.01,2013-11-01 20:49:00,
2013-11-01 16:54:00,58.9,54.4,29.30,SE,130,9.0,24.0,85,0.00,,---,0.42,VWS V14.01,2013-11-01 20:54:00,
2013-11-01 16:59:00,58.9,54.4,29.30,SE,127,12.0,24.0,85,0.00,,---,0.42,VWS V14.01,2013-11-01 20:59:00,
2013-11-01 17:00:00,59.8,56.2,29.29,SSE,157,11.0,26.0,88,0.00,,---,0.42,VWS V14.01,2013-11-01 21:00:00,
2013-11-01 17:04:00,58.8,54.3,29.30,ESE,113,9.0,24.0,85,0.00,,---,0.42,VWS V14.01,2013-11-01 21:04:00,
2013-11-01 17:09:00,58.6,54.1,29.31,ESE,113,11.0,18.0,85,0.00,,---,0.42,VWS V14.01,2013-11-01 21:09:00,
2013-11-01 17:14:00,58.3,53.8,29.31,ESE,109,17.0,18.0,85,0.00,,---,0.42,VWS V14.01,2013-11-01 21:14:00,
2013-11-01 17:19:00,58.1,53.9,29.31,SE,128,17.0,22.0,86,0.00,,---,0.42,VWS V14.01,2013-11-01 21:19:00,
2013-11-01 17:24:00,58.1,53.9,29.31,SE,135,15.0,24.0,86,0.00,,---,0.42,VWS V14.01,2013-11-01 21:24:00,
2013-11-01 17:29:00,57.9,53.7,29.31,ESE,121,16.0,25.0,86,0.00,,---,0.42,VWS V14.01,2013-11-01 21:29:00,
2013-11-01 17:30:00,59.3,55.1,29.30,East,101,13.0,24.0,86,0.00,,---,0.42,VWS V14.01,2013-11-01 21:30:00,
2013-11-01 17:34:00,57.7,53.5,29.31,East,90,11.0,25.0,86,0.00,,---,0.42,VWS V14.01,2013-11-01 21:34:00,
2013-11-01 17:39:00,57.6,53.8,29.31,East,96,8.0,22.0,87,0.00,,---,0.42,VWS V14.01,2013-11-01 21:39:00,
2013-11-01 17:44:00,57.5,53.7,29.31,ESE,107,15.0,24.0,87,0.00,,---,0.42,VWS V14.01,2013-11-01 21:44:00,
2013-11-01 17:49:00,57.6,53.8,29.31,ESE,123,8.0,24.0,87,0.00,,---,0.42,VWS V14.01,2013-11-01 21:49:00,
2013-11-01 17:54:00,57.5,53.7,29.31,ESE,112,13.0,24.0,87,0.00,,---,0.42,VWS V14.01,2013-11-01 21:54:00,
2013-11-01 17:59:00,57.5,53.7,29.31,ESE,120,17.0,24.0,87,0.00,,---,0.42,VWS V14.01,2013-11-01 21:59:00,
2013-11-01 18:00:00,58.8,54.3,29.30,ESE,113,9.0,24.0,85,0.00,,---,0.42,VWS V14.01,2013-11-01 22:00:00,
2013-11-01 18:04:00,57.4,53.6,29.32,SE,138,12.0,24.0,87,0.00,,---,0.42,VWS V14.01,2013-11-01 22:04:00,
2013-11-01 18:09:00,57.3,53.5,29.32,ESE,116,13.0,21.0,87,0.00,,---,0.42,VWS V14.01,2013-11-01 22:09:00,
2013-11-01 18:14:00,57.3,53.8,29.32,SE,134,10.0,23.0,88,0.00,,---,0.42,VWS V14.01,2013-11-01 22:14:00,
2013-11-01 18:19:00,57.3,53.8,29.32,ESE,115,14.0,23.0,88,0.00,,---,0.42,VWS V14.01,2013-11-01 22:19:00,
2013-11-01 18:24:00,57.3,53.8,29.33,SE,145,11.0,24.0,88,0.00,,---,0.42,VWS V14.01,2013-11-01 22:24:00,
2013-11-01 18:29:00,57.3,53.5,29.32,ENE,65,13.0,24.0,87,0.00,,---,0.42,VWS V14.01,2013-11-01 22:29:00,
2013-11-01 18:30:00,57.7,53.5,29.31,East,94,9.0,25.0,86,0.00,,---,0.42,VWS V14.01,2013-11-01 22:30:00,
2013-11-01 18:34:00,57.2,53.7,29.32,ESE,110,14.0,24.0,88,0.00,,---,0.42,VWS V14.01,2013-11-01 22:34:00,
2013-11-01 18:39:00,57.0,53.5,29.32,SE,128,10.0,18.0,88,0.00,,---,0.42,VWS V14.01,2013-11-01 22:39:00,
2013-11-01 18:44:00,57.0,53.5,29.33,SE,128,4.0,24.0,88,0.00,,---,0.42,VWS V14.01,2013-11-01 22:44:00,
2013-11-01 18:49:00,56.9,53.4,29.33,SE,131,9.0,24.0,88,0.00,,---,0.42,VWS V14.01,2013-11-01 22:49:00,
2013-11-01 18:54:00,57.0,53.5,29.32,ESE,112,7.0,24.0,88,0.00,,---,0.42,VWS V14.01,2013-11-01 22:54:00,
2013-11-01 18:59:00,57.0,53.5,29.33,East,101,9.0,24.0,88,0.00,,---,0.42,VWS V14.01,2013-11-01 22:59:00,
2013-11-01 19:00:00,57.4,53.6,29.32,ESE,105,16.0,24.0,87,0.00,,---,0.42,VWS V14.01,2013-11-01 23:00:00,
2013-11-01 19:04:00,57.1,53.6,29.33,ESE,117,14.0,24.0,88,0.00,,---,0.42,VWS V14.01,2013-11-01 23:04:00,
2013-11-01 19:09:00,57.3,53.5,29.34,ESE,119,17.0,22.0,87,0.00,,---,0.42,VWS V14.01,2013-11-01 23:09:00,
2013-11-01 19:14:00,57.3,53.5,29.34,ESE,113,7.0,22.0,87,0.00,,---,0.42,VWS V14.01,2013-11-01 23:14:00,
2013-11-01 19:19:00,57.4,53.6,29.34,East,89,14.0,22.0,87,0.00,,---,0.42,VWS V14.01,2013-11-01 23:19:00,
2013-11-01 19:24:00,57.6,53.5,29.34,East,97,8.0,22.0,86,0.00,,---,0.42,VWS V14.01,2013-11-01 23:24:00,
2013-11-01 19:29:00,57.7,53.5,29.34,ESE,105,10.0,22.0,86,0.00,,---,0.42,VWS V14.01,2013-11-01 23:29:00,
2013-11-01 19:30:00,57.1,53.6,29.32,East,99,10.0,24.0,88,0.00,,---,0.42,VWS V14.01,2013-11-01 23:30:00,
2013-11-01 19:34:00,57.6,53.5,29.35,ESE,121,9.0,22.0,86,0.00,,---,0.42,VWS V14.01,2013-11-01 23:34:00,
2013-11-01 19:39:00,57.5,53.3,29.35,ESE,103,11.0,17.0,86,0.00,,---,0.42,VWS V14.01,2013-11-01 23:39:00,
2013-11-01 19:44:00,57.6,53.5,29.35,NE,41,14.0,23.0,86,0.00,,---,0.42,VWS V14.01,2013-11-01 23:44:00,
2013-11-01 19:49:00,57.7,53.2,29.35,SE,124,10.0,27.0,85,0.00,,---,0.42,VWS V14.01,2013-11-01 23:49:00,
2013-11-01 19:54:00,57.9,53.1,29.35,East,84,9.0,27.0,84,0.00,,---,0.42,VWS V14.01,2013-11-01 23:54:00,
2013-11-01 19:59:00,58.0,53.2,29.35,East,97,8.0,27.0,84,0.00,,---,0.42,VWS V14.01,2013-11-01 23:59:00,
2013-11-01 20:00:00,57.1,53.6,29.34,ESE,115,18.0,24.0,88,0.00,,---,0.42,VWS V14.01,2013-11-02 00:00:00,
2013-11-01 20:04:00,58.2,53.4,29.36,SE,140,5.0,27.0,84,0.00,,---,0.42,VWS V14.01,2013-11-02 00:04:00,
2013-11-01 20:09:00,58.5,53.4,29.36,SE,134,7.0,21.0,83,0.00,,---,0.42,VWS V14.01,2013-11-02 00:09:00,
2013-11-01 20:14:00,58.4,53.3,29.36,ENE,61,11.0,21.0,83,0.00,,---,0.42,VWS V14.01,2013-11-02 00:14:00,
2013-11-01 20:19:00,58.4,53.3,29.36,SE,137,9.0,21.0,83,0.00,,---,0.42,VWS V14.01,2013-11-02 00:19:00,
2013-11-01 20:24:00,58.4,52.9,29.36,SE,134,14.0,24.0,82,0.00,,---,0.42,VWS V14.01,2013-11-02 00:24:00,
2013-11-01 20:29:00,58.4,52.9,29.36,SE,129,15.0,34.0,82,0.00,,---,0.42,VWS V14.01,2013-11-02 00:29:00,
2013-11-01 20:30:00,57.6,53.5,29.35,East,96,8.0,22.0,86,0.00,,---,0.42,VWS V14.01,2013-11-02 00:30:00,
2013-11-01 20:34:00,58.3,52.8,29.35,ESE,114,9.0,34.0,82,0.00,,---,0.42,VWS V14.01,2013-11-02 00:34:00,
2013-11-01 20:39:00,58.1,53.0,29.36,ESE,115,12.0,18.0,83,0.00,,---,0.42,VWS V14.01,2013-11-02 00:39:00,
2013-11-01 20:44:00,58.0,52.9,29.36,ESE,103,13.0,25.0,83,0.00,,---,0.42,VWS V14.01,2013-11-02 00:44:00,
2013-11-01 20:49:00,58.0,52.9,29.36,ESE,117,12.0,25.0,83,0.00,,---,0.42,VWS V14.01,2013-11-02 00:49:00,
2013-11-01 20:54:00,58.0,52.9,29.36,ESE,110,14.0,25.0,83,0.00,,---,0.42,VWS V14.01,2013-11-02 00:54:00,
2013-11-01 20:59:00,57.8,52.7,29.36,SSE,150,6.0,25.0,83,0.00,,---,0.42,VWS V14.01,2013-11-02 00:59:00,
2013-11-01 21:00:00,58.2,53.4,29.36,ESE,111,8.0,27.0,84,0.00,,---,0.42,VWS V14.01,2013-11-02 01:00:00,
2013-11-01 21:04:00,57.7,52.6,29.36,East,92,14.0,25.0,83,0.00,,---,0.42,VWS V14.01,2013-11-02 01:04:00,
2013-11-01 21:09:00,57.7,52.6,29.37,SSE,149,11.0,25.0,83,0.00,,---,0.42,VWS V14.01,2013-11-02 01:09:00,
2013-11-01 21:14:00,57.6,52.8,29.38,SE,125,10.0,25.0,84,0.00,,---,0.42,VWS V14.01,2013-11-02 01:14:00,
2013-11-01 21:19:00,57.4,52.6,29.38,SE,136,5.0,25.0,84,0.00,,---,0.42,VWS V14.01,2013-11-02 01:19:00,
2013-11-01 21:24:00,57.4,52.9,29.39,SE,127,15.0,25.0,85,0.00,,---,0.42,VWS V14.01,2013-11-02 01:24:00,
2013-11-01 21:29:00,57.3,52.8,29.39,SE,131,9.0,25.0,85,0.00,,---,0.42,VWS V14.01,2013-11-02 01:29:00,
2013-11-01 21:30:00,58.3,52.8,29.35,East,99,8.0,34.0,82,0.00,,---,0.42,VWS V14.01,2013-11-02 01:30:00,
2013-11-01 21:34:00,57.3,52.8,29.39,SE,134,20.0,25.0,85,0.00,,---,0.42,VWS V14.01,2013-11-02 01:34:00,
2013-11-01 21:39:00,57.2,53.1,29.39,SE,127,14.0,21.0,86,0.00,,---,0.42,VWS V14.01,2013-11-02 01:39:00,
2013-11-01 21:44:00,57.2,53.1,29.39,ESE,107,9.0,21.0,86,0.00,,---,0.42,VWS V14.01,2013-11-02 01:44:00,
2013-11-01 21:49:00,57.2,53.1,29.39,SSE,148,8.0,22.0,86,0.00,,---,0.42,VWS V14.01,2013-11-02 01:49:00,
2013-11-01 21:54:00,57.2,53.1,29.40,ESE,115,15.0,22.0,86,0.00,,---,0.42,VWS V14.01,2013-11-02 01:54:00,
2013-11-01 21:59:00,57.3,53.2,29.40,ESE,123,11.0,22.0,86,0.00,,---,0.42,VWS V14.01,2013-11-02 01:59:00,
2013-11-01 22:00:00,57.7,52.6,29.36,ESE,123,15.0,25.0,83,0.00,,---,0.42,VWS V14.01,2013-11-02 02:00:00,
2013-11-01 22:04:00,57.3,53.2,29.41,ESE,112,10.0,22.0,86,0.00,,---,0.42,VWS V14.01,2013-11-02 02:04:00,
2013-11-01 22:09:00,57.4,53.2,29.41,SE,138,5.0,17.0,86,0.00,,---,0.42,VWS V14.01,2013-11-02 02:09:00,
2013-11-01 22:14:00,57.7,53.2,29.41,SE,130,11.0,20.0,85,0.00,,---,0.42,VWS V14.01,2013-11-02 02:14:00,
2013-11-01 22:19:00,57.8,53.3,29.41,East,101,9.0,21.0,85,0.00,,---,0.42,VWS V14.01,2013-11-02 02:19:00,
2013-11-01 22:24:00,57.9,53.4,29.41,SE,128,12.0,23.0,85,0.00,,---,0.42,VWS V14.01,2013-11-02 02:24:00,
2013-11-01 22:29:00,57.9,53.4,29.42,ESE,108,11.0,25.0,85,0.00,,---,0.42,VWS V14.01,2013-11-02 02:29:00,
2013-11-01 22:30:00,57.3,52.8,29.39,East,98,18.0,25.0,85,0.00,,---,0.42,VWS V14.01,2013-11-02 02:30:00,
2013-11-01 22:34:00,57.9,53.4,29.42,SE,142,13.0,25.0,85,0.00,,---,0.42,VWS V14.01,2013-11-02 02:34:00,
2013-11-01 22:39:00,58.0,53.2,29.42,SE,132,9.0,17.0,84,0.00,,---,0.42,VWS V14.01,2013-11-02 02:39:00,
2013-11-01 22:44:00,58.0,53.2,29.42,East,84,15.0,17.0,84,0.00,,---,0.42,VWS V14.01,2013-11-02 02:44:00,
2013-11-01 22:49:00,58.0,53.2,29.43,SE,144,10.0,24.0,84,0.00,,---,0.42,VWS V14.01,2013-11-02 02:49:00,
2013-11-01 22:54:00,57.9,53.1,29.43,ESE,106,7.0,24.0,84,0.00,,---,0.42,VWS V14.01,2013-11-02 02:54:00,
2013-11-01 22:59:00,57.9,53.1,29.43,ESE,105,16.0,24.0,84,0.00,,---,0.42,VWS V14.01,2013-11-02 02:59:00,
2013-11-01 23:00:00,57.3,53.2,29.41,ESE,120,8.0,22.0,86,0.00,,---,0.42,VWS V14.01,2013-11-02 03:00:00,
2013-11-01 23:04:00,57.9,53.1,29.43,SE,134,11.0,24.0,84,0.00,,---,0.42,VWS V14.01,2013-11-02 03:04:00,
2013-11-01 23:09:00,57.8,53.0,29.43,SE,135,11.0,16.0,84,0.00,,---,0.42,VWS V14.01,2013-11-02 03:09:00,
2013-11-01 23:14:00,57.6,52.8,29.43,SE,136,12.0,17.0,84,0.00,,---,0.42,VWS V14.01,2013-11-02 03:14:00,
2013-11-01 23:19:00,57.5,52.7,29.43,SE,142,11.0,17.0,84,0.00,,---,0.42,VWS V14.01,2013-11-02 03:19:00,
2013-11-01 23:24:00,57.4,52.6,29.44,SE,128,11.0,17.0,84,0.00,,---,0.42,VWS V14.01,2013-11-02 03:24:00,
2013-11-01 23:29:00,57.3,52.5,29.43,SE,144,5.0,17.0,84,0.00,,---,0.42,VWS V14.01,2013-11-02 03:29:00,
2013-11-01 23:30:00,57.9,53.4,29.42,SSE,150,14.0,25.0,85,0.00,,---,0.42,VWS V14.01,2013-11-02 03:30:00,
2013-11-01 23:34:00,57.2,52.1,29.44,SE,129,13.0,17.0,83,0.00,,---,0.42,VWS V14.01,2013-11-02 03:34:00,
2013-11-01 23:39:00,57.2,52.1,29.44,SE,132,4.0,12.0,83,0.00,,---,0.42,VWS V14.01,2013-11-02 03:39:00,
2013-11-01 23:44:00,57.1,52.0,29.44,SSE,155,6.0,12.0,83,0.00,,---,0.42,VWS V14.01,2013-11-02 03:44:00,
2013-11-01 23:49:00,57.0,51.6,29.45,SE,146,5.0,12.0,82,0.00,,---,0.42,VWS V14.01,2013-11-02 03:49:00,
2013-11-01 23:54:00,56.9,51.5,29.45,SE,140,3.0,12.0,82,0.00,,---,0.42,VWS V14.01,2013-11-02 03:54:00,
2013-11-01 23:59:00,56.8,51.0,29.45,SSE,153,5.0,12.0,81,0.00,,---,0.42,VWS V14.01,2013-11-02 03:59:00,